Terminal Aerodrome Forecast
Issued by NWS

Current Version | Previous Version | Graphics & Text | Print | Product List | Glossary On
Versions: 1 2 3 4 5 6 7 8 9 10 11 12 13
400
FTUS41 KPBZ 051134
TAFMGW
TAF
KMGW 051134Z 0512/0612 30006KT P6SM OVC035
     FM051500 27005KT P6SM SCT050=

USA.gov is the U.S. government's official web portal to all federal, state and local government web resources and services.